CARTOSAT-2A

Last updated on Thu Oct 30 2025 00:02:31 GMT+0000 (Coordinated Universal Time)

1 32783U 08021A 25302.55612142 .00001165 00000+0 16513-3 0 9993 2 32783 97.7996 353.7480 0012797 136.2460 223.9768 14.78802953944719
UTC large
Height (km)
Speed (km/s)
/
Latitude / Longitude
Inclination (degrees)
Orbital Period (minutes)
Azimuth
Elevation
Range (km)
Doppler Factor

Next 0 passes for location: London (51.5072 / 0.1276)

Sorry there are no passes over London.